Powrót do katalogu

THOR ABLESTAR DEB

AktywnyLEO
NORAD 152·DEBRIS·🇺🇸 United States

Wystrzelony Jun 29, 1961 z Cape Canaveral Space Force Station

Loading…

Następne Przeloty (najbliższe 24 godziny)

TLE

ŚwieżeSource: Space-Track

Epoka: Sep 13, 2026, 23:24 UTC

1 00152U 61015AN  26256.97507135 -.00000008  00000-0  37006-4 0  9998
2 00152  66.5919  93.0790 0145317 138.2148 223.0146 14.11584000338615

Śledź THOR ABLESTAR DEB w czasie rzeczywistym z AllMySat

Download on the App Store